Weather in Dyatlovo

Russia / Tver Oblast     57°42′25″N   34°47′22″E
temp.,
°C
wind,
m/s
gust,
m/s
humid.,
%
clouds,
%
prec.,
mm/h
press.,
hPa
HPBL,
m
18 january, mon
mon1800:00−19wsw229769 0.0 101920
03:00−18wsw229769 0.0 101923
06:00−16sw239798 0.0 101876
09:00−15ssw249798 0.2 1019109
12:00−12w239499 0.1 1019189
15:00−12wsw129697 0.2 1018114
18:00−14sw129791 0.1 101820
21:00−13sw129792 0.2 101821
19 january, tue
tue1900:00−16wsw119884 0.1 101820
03:00−14w129786 0.1 101820
06:00−16nw119891 0.0 101720
09:00−16wsw119893 0.1 101820
12:00−12wsw129488 0.1 1017120
15:00−12w119689 0.1 101730
18:00−15w119883 0.0 101720
21:00−15wsw129887 0.1 101720
20 january, wed
wed2000:00−16wsw129778 0.0 101720
03:00−16wsw229875 0.0 101820
06:00−17wsw229777 0.0 101720
09:00−17sw229748 0.0 101820
12:00−13ssw239531 0.0 1018127
15:00−12ssw249519 0.0 1017160
18:00−15s23960 0.0 101755
21:00−16s36930 0.0 1017139
21 january, thu
thu2100:00−16s398963 0.0 1015232
03:00−15sse4118781 0.0 1013288
06:00−13sse51294100 0.1 1008411
09:00−10s61493100 2.1 1005651
12:00−7ssw61394100 1.3 1002575
15:00−2sw51495100 2.7 999613
18:00+2wsw41399100 1.5 998539
21:00+2wsw41299100 2.4 999465
22 january, fri
fri2200:00+2wsw41099100 0.3 1001346
03:00+1wsw3899100 0.9 1002280
06:00−2nne1299100 1.0 100388
09:00−6ene3597100 2.1 1005166
12:00−6e3494100 0.3 1007212
15:00−7e3695100 0.4 1008228
18:00−8e4794100 0.1 1008237
21:00−7e3795100 0.3 1008256